This demonstration page uses our WeatherBlox Daily Observations layout. Learn more.

Left ArrowRight Arrow

Hourly Observations for July 4, 2016

Temp ( °F °C ) Dew Point ( °F °C ) Humidity (%) Winds ( mph kmh ) Pressure ( in mb ) Visibility ( mi km ) Precip ( " mm )
12:51 am 00:51 Clear 77 25 55 12.8 47 47 WNW 7 11 29.84 1010 10 16 0.00 0.00
1:51 am 01:51 Clear 77 25 55 12.8 47 47 WNW 6 9 29.83 1010 10 16 0.00 0.00
2:51 am 02:51 Clear 75 23.9 55 12.8 50 50 WNW 6 9 29.84 1011 10 16 0.00 0.00
3:51 am 03:51 Clear 72 22.2 58 14.4 61 61 Calm 29.85 1011 10 16 0.00 0.00
4:51 am 04:51 Clear 70 21.1 58 14.4 66 66 Calm 29.86 1011 10 16 0.00 0.00
5:51 am 05:51 Sunny 69 20.6 58 14.4 68 68 Calm 29.88 1012 10 16 0.00 0.00
6:51 am 06:51 Sunny 75 23.9 56 13.3 52 52 E 3 6 29.89 1012 10 16 0.00 0.00
7:51 am 07:51 Sunny 80 26.7 55 12.8 42 42 E 5 7 29.91 1013 10 16 0.00 0.00
8:51 am 08:51 Sunny 88 31.1 54 12.2 31 31 NW 3 6 29.90 1013 10 16 0.00 0.00
9:51 am 09:51 Sunny 92 33.3 52 11.1 26 26 W 9 15 29.88 1012 10 16 0.00 0.00
10:51 am 10:51 Sunny 97 36.1 50 10 20 20 W 15 24 29.87 1012 10 16 0.00 0.00
11:51 am 11:51 Sunny 100 37.8 40 4.4 13 13 WNW 17 28 29.85 1011 10 16 0.00 0.00
12:51 pm 12:51 Sunny 100 37.8 38 3.3 12 12 W 15 24 29.84 1011 10 16 0.00 0.00
1:51 pm 13:51 Sunny 102 38.9 38 3.3 11 11 WNW 13 20 29.82 1010 10 16 0.00 0.00
2:51 pm 14:51 Sunny 103 39.4 41 5 12 12 WNW 17 28 29.79 1009 10 16 0.00 0.00
3:51 pm 15:51 Sunny 101 38.3 42 5.6 13 13 NNW 9 15 29.78 1009 10 16 0.00 0.00
4:51 pm 16:51 Sunny 101 38.3 42 5.6 13 13 WNW 12 19 29.77 1008 10 16 0.00 0.00
5:51 pm 17:51 Sunny 100 37.8 42 5.6 14 14 WNW 16 26 29.76 1008 10 16 0.00 0.00
6:51 pm 18:51 Sunny 97 36.1 43 6.1 16 16 WNW 15 24 29.77 1008 10 16 0.00 0.00
7:51 pm 19:51 Clear 93 33.9 43 6.1 18 18 NW 12 19 29.78 1008 10 16 0.00 0.00
8:51 pm 20:51 Clear 88 31.1 47 8.3 24 24 NW 8 13 29.79 1009 10 16 0.00 0.00
9:51 pm 21:51 Clear 84 28.9 49 9.4 30 30 WNW 6 9 29.81 1009 10 16 0.00 0.00
10:51 pm 22:51 Clear 82 27.8 49 9.4 32 32 NNW 6 9 29.80 1009 10 16 0.00 0.00
11:51 pm 23:51 Clear 82 27.8 50 10 33 33 NNW 8 13 29.80 1009 10 16 0.00 0.00

Powered by AerisWeather